• In France
  • List of Countries
  • For 7 days
  • Water Temperature
  • Satellite Maps
  • Weather Map
  • Weather Widgets
  • user-avatar
    Login

    Hourly Weather Newport

    Today, 20 November, Monday

    Time Temperature Precipitation Wind Pressure Humidity
    00:00 +10°C° 0 mm 7 mps 763 mmHg 94%
    01:00 +10°C° 0.1 mm 7 mps 763 mmHg 93%
    02:00 +10°C° 0.1 mm 8 mps 762 mmHg 92%
    03:00 +10°C° 0.1 mm 8 mps 762 mmHg 91%
    04:00 +10°C° 0.1 mm 8 mps 761 mmHg 91%
    05:00 +10°C° 0.1 mm 8 mps 761 mmHg 92%
    06:00 +10°C° 0 mm 8 mps 760 mmHg 92%
    07:00 +11°C° 0.1 mm 8 mps 760 mmHg 93%
    08:00 +11°C° 0.1 mm 9 mps 760 mmHg 93%
    09:00 +11°C° 0.1 mm 9 mps 760 mmHg 93%
    10:00 +12°C° 0.2 mm 9 mps 760 mmHg 93%
    11:00 +12°C° 0.2 mm 9 mps 760 mmHg 93%
    12:00 +12°C° 0.2 mm 9 mps 760 mmHg 93%
    13:00 +12°C° 0.4 mm 9 mps 759 mmHg 94%
    14:00 +12°C° 0.4 mm 8 mps 759 mmHg 94%
    15:00 +12°C° 0.4 mm 8 mps 758 mmHg 95%
    16:00 +12°C° 0.9 mm 8 mps 758 mmHg 95%
    17:00 +12°C° 0.9 mm 7 mps 758 mmHg 96%
    18:00 +12°C° 0.9 mm 7 mps 758 mmHg 96%
    19:00 +12°C° 0.4 mm 7 mps 758 mmHg 96%
    20:00 +12°C° 0.4 mm 7 mps 758 mmHg 96%
    21:00 +12°C° 0.4 mm 7 mps 758 mmHg 96%
    22:00 +12°C° 0.1 mm 7 mps 758 mmHg 96%
    23:00 +13°C° 0.1 mm 6 mps 758 mmHg 96%

    Tomorrow, 21 November, Tuesday

    Time Temperature Precipitation Wind Pressure Humidity
    00:00 +13°C° 0.1 mm 6 mps 758 mmHg 96%
    01:00 +13°C° 0 mm 6 mps 758 mmHg 96%
    02:00 +13°C° 0 mm 6 mps 757 mmHg 96%
    03:00 +13°C° 0 mm 6 mps 757 mmHg 95%
    04:00 +11°C° 0 mm 6 mps 757 mmHg 95%
    05:00 +11°C° 0 mm 6 mps 756 mmHg 94%
    06:00 +11°C° 0 mm 6 mps 756 mmHg 94%
    07:00 +11°C° 0 mm 6 mps 756 mmHg 93%
    08:00 +11°C° 0 mm 6 mps 756 mmHg 93%
    09:00 +11°C° 0 mm 7 mps 756 mmHg 92%
    10:00 +12°C° 0.1 mm 7 mps 755 mmHg 91%
    11:00 +12°C° 0.1 mm 7 mps 755 mmHg 90%
    12:00 +12°C° 0.1 mm 8 mps 754 mmHg 89%
    13:00 +12°C° 0 mm 8 mps 753 mmHg 89%
    14:00 +12°C° 0 mm 9 mps 753 mmHg 89%
    15:00 +12°C° 0 mm 9 mps 752 mmHg 89%
    16:00 +12°C° 0.3 mm 10 mps 752 mmHg 89%
    17:00 +12°C° 0.3 mm 10 mps 751 mmHg 89%
    18:00 +12°C° 0.3 mm 10 mps 751 mmHg 89%
    19:00 +12°C° 0.4 mm 11 mps 750 mmHg 89%
    20:00 +12°C° 0.4 mm 11 mps 750 mmHg 89%
    21:00 +12°C° 0.4 mm 11 mps 750 mmHg 88%
    22:00 +12°C° 0.3 mm 11 mps 749 mmHg 88%
    23:00 +12°C° 0.3 mm 11 mps 748 mmHg 88%

    Day after tomorrow, 22 November, Wednesday

    Time Temperature Precipitation Wind Pressure Humidity
    00:00 +13°C° 0.3 mm 11 mps 748 mmHg 88%
    01:00 +13°C° 0.7 mm 11 mps 747 mmHg 88%
    02:00 +13°C° 0.7 mm 12 mps 747 mmHg 89%
    03:00 +13°C° 0.7 mm 12 mps 746 mmHg 89%
    04:00 +13°C° 0.5 mm 12 mps 746 mmHg 89%
    05:00 +13°C° 0.5 mm 11 mps 745 mmHg 89%
    06:00 +13°C° 0.5 mm 11 mps 744 mmHg 90%
    07:00 +13°C° 0.6 mm 11 mps 744 mmHg 89%
    08:00 +13°C° 0.6 mm 12 mps 743 mmHg 88%
    09:00 +13°C° 0.6 mm 12 mps 742 mmHg 88%
    10:00 +13°C° 1.3 mm 12 mps 741 mmHg 88%
    11:00 +13°C° 1.3 mm 13 mps 741 mmHg 89%
    12:00 +13°C° 1.3 mm 13 mps 740 mmHg 89%
    13:00 +13°C° 0.4 mm 12 mps 740 mmHg 89%
    14:00 +13°C° 0.4 mm 11 mps 740 mmHg 89%
    15:00 +13°C° 0.4 mm 10 mps 739 mmHg 89%
    16:00 +13°C° 0.4 mm 10 mps 739 mmHg 89%
    17:00 +12°C° 0.4 mm 10 mps 738 mmHg 90%
    18:00 +12°C° 0.4 mm 10 mps 738 mmHg 91%
    19:00 +12°C° 0.4 mm 9 mps 738 mmHg 91%
    20:00 +12°C° 0.4 mm 9 mps 738 mmHg 91%
    21:00 +12°C° 0.4 mm 8 mps 738 mmHg 91%
    22:00 +12°C° 0.2 mm 9 mps 738 mmHg 90%
    23:00 +12°C° 0.2 mm 10 mps 739 mmHg 90%

    23 November, Thursday

    Time Temperature Precipitation Wind Pressure Humidity
    00:00 +12°C° 0.2 mm 11 mps 739 mmHg 90%
    01:00 +11°C° 0.1 mm 11 mps 740 mmHg 87%
    02:00 +9°C° 0.1 mm 11 mps 741 mmHg 83%
    03:00 +8°C° 0.1 mm 11 mps 742 mmHg 80%
    04:00 +8°C° 0 mm 11 mps 743 mmHg 79%
    05:00 +7°C° 0 mm 10 mps 744 mmHg 77%
    06:00 +7°C° 0 mm 10 mps 745 mmHg 76%
    07:00 +7°C° 0 mm 10 mps 746 mmHg 76%
    08:00 +7°C° 0 mm 10 mps 747 mmHg 76%
    09:00 +7°C° 0 mm 10 mps 748 mmHg 76%
    10:00 +7°C° 0.3 mm 9 mps 748 mmHg 77%
    11:00 +8°C° 0.3 mm 9 mps 748 mmHg 79%
    12:00 +8°C° 0.3 mm 9 mps 748 mmHg 80%
    13:00 +9°C° 1.1 mm 8 mps 748 mmHg 84%
    14:00 +9°C° 1.1 mm 8 mps 748 mmHg 87%
    15:00 +9°C° 1.1 mm 7 mps 748 mmHg 90%
    16:00 +9°C° 0.1 mm 6 mps 748 mmHg 90%
    17:00 +8°C° 0.1 mm 6 mps 749 mmHg 90%
    18:00 +8°C° 0.1 mm 5 mps 749 mmHg 89%
    19:00 +7°C° 0 mm 4 mps 750 mmHg 88%
    20:00 +7°C° 0 mm 4 mps 750 mmHg 87%
    21:00 +8°C° 0 mm 3 mps 751 mmHg 86%
    22:00 +8°C° 0.1 mm 3 mps 751 mmHg 86%
    23:00 +8°C° 0.1 mm 2 mps 751 mmHg 85%

    24 November, Friday

    Time Temperature Precipitation Wind Pressure Humidity
    00:00 +9°C° 0.1 mm 1 mps 751 mmHg 85%
    01:00 +9°C° 0.3 mm 1 mps 751 mmHg 87%
    02:00 +8°C° 0.3 mm 1 mps 751 mmHg 88%
    03:00 +8°C° 0.3 mm 1 mps 750 mmHg 89%
    04:00 +8°C° 0 mm 1 mps 750 mmHg 90%
    05:00 +8°C° 0 mm 1 mps 750 mmHg 90%
    06:00 +7°C° 0 mm 2 mps 750 mmHg 91%
    07:00 +7°C° 0.2 mm 2 mps 751 mmHg 92%
    08:00 +8°C° 0.2 mm 2 mps 751 mmHg 92%
    09:00 +8°C° 0.2 mm 2 mps 751 mmHg 93%
    10:00 +8°C° 0.6 mm 3 mps 751 mmHg 92%
    11:00 +7°C° 0.6 mm 4 mps 751 mmHg 91%
    12:00 +8°C° 0.6 mm 4 mps 751 mmHg 90%
    13:00 +7°C° 0.3 mm 4 mps 751 mmHg 88%
    14:00 +7°C° 0.3 mm 5 mps 752 mmHg 86%
    15:00 +7°C° 0.3 mm 5 mps 752 mmHg 84%
    16:00 +7°C° 0 mm 5 mps 752 mmHg 85%
    17:00 +6°C° 0 mm 5 mps 753 mmHg 86%
    18:00 +5°C° 0 mm 5 mps 754 mmHg 86%
    19:00 +5°C° 0.1 mm 5 mps 754 mmHg 86%
    20:00 +5°C° 0.1 mm 5 mps 755 mmHg 86%
    21:00 +5°C° 0.1 mm 5 mps 756 mmHg 86%
    22:00 +3°C° 0.1 mm 5 mps 757 mmHg 84%
    23:00 +3°C° 0.1 mm 5 mps 757 mmHg 83%

    25 November, Saturday

    Time Temperature Precipitation Wind Pressure Humidity
    00:00 +2°C° 0.1 mm 5 mps 758 mmHg 82%
    01:00 +2°C° 0 mm 5 mps 758 mmHg 81%
    02:00 +2°C° 0 mm 5 mps 759 mmHg 80%
    03:00 +1°C° 0 mm 5 mps 759 mmHg 79%
    04:00 +1°C° 0 mm 5 mps 760 mmHg 78%
    05:00 +1°C° 0 mm 5 mps 760 mmHg 77%
    06:00 +1°C° 0 mm 5 mps 761 mmHg 75%
    07:00 +2°C° 0 mm 5 mps 762 mmHg 75%
    08:00 +2°C° 0 mm 5 mps 762 mmHg 75%
    09:00 +2°C° 0 mm 5 mps 763 mmHg 75%
    10:00 +3°C° 0 mm 6 mps 763 mmHg 72%
    11:00 +4°C° 0 mm 6 mps 764 mmHg 69%
    12:00 +5°C° 0 mm 7 mps 764 mmHg 65%
    13:00 +4°C° 0 mm 7 mps 764 mmHg 66%
    14:00 +4°C° 0 mm 7 mps 765 mmHg 67%
    15:00 +3°C° 0 mm 7 mps 765 mmHg 67%
    16:00 +3°C° 0 mm 7 mps 765 mmHg 68%
    17:00 +2°C° 0 mm 7 mps 766 mmHg 69%
    18:00 0°C° 0 mm 7 mps 766 mmHg 70%
    19:00 0°C° 0 mm 7 mps 767 mmHg 70%
    20:00 0°C° 0 mm 7 mps 767 mmHg 70%
    21:00 0°C° 0 mm 7 mps 768 mmHg 70%
    22:00 0°C° 0 mm 7 mps 768 mmHg 70%
    23:00 0°C° 0 mm 7 mps 768 mmHg 71%
    Show more